Location: Pinawa
(50.1500°N, 95.8830°W)
Time: 01:41:33
(UTC-06:00)

ISS - All Passes

Search period start: 16 January 2018 00:00
Search period end: 26 January 2018 00:00
Orbit: 402 x 406 km, 51.6° (Epoch: 16 January)

Date Brightness Start Highest point End Pass type
(mag) Time Alt. Az. Time Alt. Az. Time Alt. Az.
16 Jan - 00:24:29 10° SW 00:27:42 59° SSE 00:30:57 10° ENE night (unlit)
16 Jan - 02:00:56 10° W 02:04:12 66° N 02:07:29 10° E night (unlit)
16 Jan - 03:37:30 10° WNW 03:40:48 89° SSW 03:44:05 10° ESE night (unlit)
16 Jan - 05:14:14 10° W 05:17:00 25° SW 05:19:47 10° SSE visible
16 Jan - 23:32:19 10° SW 23:35:23 39° SSE 23:38:28 10° E night (unlit)
17 Jan - 01:08:28 10° W 01:11:45 74° N 01:15:02 10° ENE night (unlit)
17 Jan - 02:45:05 10° WNW 02:48:22 74° N 02:51:39 10° E night (unlit)
17 Jan - 04:21:38 10° W 04:24:44 39° SSW 04:27:49 10° SE night (unlit)
17 Jan - 22:40:20 10° SSW 22:43:05 25° SE 22:45:52 10° E night (unlit)
18 Jan - 00:16:02 10° WSW 00:19:18 90° SSW 00:22:35 10° ENE night (unlit)
18 Jan - 01:52:38 10° W 01:55:54 66° N 01:59:10 10° E night (unlit)
18 Jan - 03:29:10 10° WNW 03:32:24 58° SSW 03:35:38 10° SE night (unlit)
18 Jan - 05:06:33 10° WSW 05:08:21 14° SW 05:10:08 10° S night (unlit)
18 Jan - 21:48:44 10° S 21:50:52 16° SE 21:53:01 10° E night (unlit)
18 Jan - 23:23:38 10° WSW 23:26:53 67° SSE 23:30:08 10° ENE night (unlit)
19 Jan - 01:00:09 10° W 01:03:25 65° N 01:06:41 10° E night (unlit)
19 Jan - 02:36:42 10° WNW 02:39:59 82° SSW 02:43:16 10° ESE night (unlit)
19 Jan - 04:13:32 10° W 04:16:08 22° SW 04:18:44 10° SSE night (unlit)
19 Jan - 22:31:22 10° SW 22:34:30 45° SSE 22:37:39 10° E night (unlit)
20 Jan - 00:07:39 10° W 00:10:55 70° N 00:14:11 10° ENE night (unlit)
20 Jan - 01:44:15 10° WNW 01:47:32 79° N 01:50:49 10° E night (unlit)
20 Jan - 03:20:50 10° W 03:23:51 34° SSW 03:26:51 10° SE night (unlit)
20 Jan - 21:39:17 10° SSW 21:42:10 29° SSE 21:45:04 10° E night (unlit)
20 Jan - 23:15:09 10° WSW 23:18:25 84° NNW 23:21:43 10° ENE night (unlit)
21 Jan - 00:51:46 10° WNW 00:55:02 68° N 00:58:18 10° E night (unlit)
21 Jan - 02:28:17 10° WNW 02:31:29 51° SSW 02:34:41 10° SE night (unlit)
21 Jan - 04:06:06 10° WSW 04:07:22 12° SW 04:08:37 10° SSW night (unlit)
21 Jan - 20:47:29 10° S 20:49:52 19° SE 20:52:17 10° E night (unlit)
21 Jan - 22:22:42 10° WSW 22:25:57 75° SSE 22:29:13 10° ENE night (unlit)
21 Jan - 23:59:15 10° W 00:02:30 64° N 00:05:46 10° E night (unlit)
22 Jan - 01:35:47 10° WNW 01:39:03 74° SSW 01:42:20 10° ESE night (unlit)
22 Jan - 03:12:44 10° W 03:15:08 19° SW 03:17:32 10° S night (unlit)
22 Jan - 19:56:22 10° SSE 19:57:39 12° SE 19:58:55 10° ESE night (unlit)
22 Jan - 21:30:20 10° SW 21:33:31 51° SSE 21:36:43 10° ENE night (unlit)
22 Jan - 23:06:43 10° W 23:09:58 68° N 23:13:15 10° ENE night (unlit)
23 Jan - 00:43:17 10° WNW 00:46:35 84° NNE 00:49:51 10° ESE night (unlit)
23 Jan - 02:19:56 10° W 02:22:50 29° SSW 02:25:44 10° SSE night (unlit)
23 Jan - 20:38:08 10° SW 20:41:07 34° SSE 20:44:07 10° E night (unlit)
23 Jan - 22:14:10 10° W 22:17:26 78° NNW 22:20:43 10° ENE night (unlit)
23 Jan - 23:50:47 10° WNW 23:54:03 70° N 23:57:19 10° E night (unlit)
24 Jan - 01:27:19 10° W 01:30:27 45° SSW 01:33:35 10° SE night (unlit)
24 Jan - 19:46:11 10° SSW 19:48:46 22° SE 19:51:23 10° E visible
24 Jan - 21:21:39 10° WSW 21:24:55 82° SSE 21:28:12 10° ENE night (unlit)
24 Jan - 22:58:14 10° W 23:01:29 65° N 23:04:45 10° E night (unlit)
25 Jan - 00:34:45 10° WNW 00:38:01 66° SSW 00:41:15 10° ESE night (unlit)
25 Jan - 02:11:53 10° W 02:14:01 16° SW 02:16:09 10° S night (unlit)
25 Jan - 18:54:42 10° S 18:56:29 14° SE 18:58:16 10° ESE visible
25 Jan - 20:29:13 10° SW 20:32:26 59° SSE 20:35:39 10° ENE visible
25 Jan - 22:05:39 10° W 22:08:55 66° N 22:12:10 10° E night (unlit)
25 Jan - 23:42:13 10° WNW 23:45:30 89° SW 23:48:47 10° ESE night (unlit)
